Wind_Speed
45 44 43 42 42 43 45 42 41 41 42 43 42 43 41 41 39 34 35 33 35 42 33 27 25 26 28 27 22 20 19 16 13 10 9 7 6 5 4 4 6 11 13 18 20 31 16
46 45 45 44 44 42 43 46 46 43 42 43 43 44 44 42 41 37 35 36 33 36 37 30 27 27 28 27 23 24 21 19 16 14 11 9 8 7 8 8 8 8 10 14 24 21 20
46 46 46 46 46 45 45 44 46 49 45 43 44 44 46 45 42 40 38 40 33 42 33 33 30 29 29 28 28 26 23 21 19 16 13 12 10 10 12 13 11 11 11 14 22 28 19
48 49 49 48 48 48 47 47 46 47 49 46 45 45 45 46 44 42 40 42 39 37 40 40 34 32 30 31 31 28 27 24 22 19 17 14 12 11 13 15 15 15 16 17 16 22 27
50 51 51 51 51 50 49 48 49 48 48 50 47 47 46 46 46 45 44 43 43 40 43 39 42 38 33 34 32 33 29 28 26 23 21 18 17 15 13 15 16 17 16 15 18 24 30
52 52 52 52 51 52 51 50 50 50 50 50 51 48 49 47 46 48 46 45 45 44 43 46 44 44 38 37 37 33 31 31 29 27 25 22 20 18 16 15 12 5 21 10 21 31 33
53 53 53 53 52 52 53 53 52 53 52 53 53 52 49 50 47 48 49 48 47 46 42 43 47 42 42 42 34 35 34 32 31 29 25 25 24 20 19 17 11 17 17 14 22 32 34
55 54 54 54 53 53 54 54 55 54 54 53 53 54 52 51 50 49 51 50 50 48 44 45 49 47 42 40 39 38 37 34 33 28 30 30 23 23 22 17 17 23 19 19 25 31 30
57 57 56 56 55 55 55 55 54 54 54 54 53 54 55 52 51 51 52 53 51 49 47 45 46 49 41 41 43 42 39 36 34 34 32 30 25 29 27 21 24 23 22 17 13 34 27
60 59 59 58 58 59 58 58 56 55 54 55 54 53 55 55 52 53 55 55 52 49 49 44 47 46 47 38 41 41 40 41 41 37 32 35 28 27 30 25 27 22 21 20 16 29 19
61 61 61 60 61 61 60 60 58 56 54 55 55 54 54 56 55 56 55 54 54 51 50 45 47 41 45 46 27 36 30 36 34 31 36 33 31 31 34 25 24 19 22 16 17 17 21
62 63 63 63 62 62 62 61 60 60 59 58 58 57 55 56 61 59 57 55 55 55 56 48 50 44 46 43 35 34 38 35 26 30 32 30 28 29 27 24 24 18 23 21 19 17 20
65 65 66 65 66 65 65 65 65 65 65 65 64 62 61 60 61 63 61 59 58 59 52 50 49 47 48 39 41 40 37 35 34 32 30 30 31 29 27 27 23 24 21 18 13 14 22
69 70 71 70 70 70 70 69 70 70 70 69 68 66 64 65 64 64 63 64 62 56 55 48 50 47 46 45 44 45 43 38 38 31 26 29 29 29 25 27 25 14 18 13 17 22 19
75 75 74 74 73 73 72 71 70 69 69 70 69 68 68 66 67 65 66 67 60 54 51 49 55 47 45 40 41 43 45 38 33 29 29 22 25 21 23 24 22 16 21 11 16 16 13
76 76 76 77 75 73 71 67 63 59 57 61 62 65 64 62 67 68 68 65 62 56 37 51 49 51 41 43 39 41 39 35 34 31 27 25 14 16 24 19 21 17 10 15 17 19 15
73 71 68 68 68 68 68 65 59 55 53 55 53 57 53 55 57 66 71 64 62 59 42 39 56 50 43 39 40 36 38 29 31 30 31 26 23 19 29 26 23 22 22 15 13 15 12
38 39 42 45 47 48 49 62 58 51 51 51 49 50 48 49 54 59 68 67 67 65 67 56 57 54 44 40 38 36 27 34 32 30 31 32 28 25 26 24 18 16 10 13 17 10 22
31 30 34 44 45 45 44 50 59 49 46 48 47 42 42 48 57 62 65 75 67 71 71 64 60 53 49 40 38 33 33 30 33 31 32 30 32 30 23 26 22 25 21 19 20 28 20
38 34 33 42 43 40 40 47 57 51 39 42 44 45 46 46 52 61 71 75 69 72 74 70 63 53 49 43 38 30 34 30 34 28 30 37 33 35 22 21 16 27 23 18 14 15 13
37 41 31 37 38 37 39 50 55 50 45 45 45 44 46 49 51 60 67 70 74 75 73 70 61 57 52 45 41 31 31 35 30 32 35 36 31 34 20 15 14 17 21 21 17 20 23
44 39 27 32 37 37 42 56 54 45 44 46 44 45 49 52 51 57 55 74 78 76 71 65 60 56 49 44 39 33 33 31 31 31 30 30 30 27 26 18 18 16 18 19 20 21 21
38 36 28 28 31 34 46 57 51 47 43 48 43 46 51 47 46 54 56 74 80 76 69 67 53 54 49 45 38 25 30 24 25 23 25 27 32 30 27 26 28 26 23 19 15 14 22
29 33 31 29 28 32 56 59 52 49 47 44 42 47 53 47 45 53 56 69 81 75 64 60 58 59 53 48 42 37 33 30 31 29 28 28 27 26 24 31 26 23 19 16 13 15 17
26 34 26 29 27 37 62 56 50 48 46 42 40 43 60 45 47 51 56 62 75 70 64 64 61 57 49 48 40 40 36 34 34 30 28 28 29 27 27 28 24 18 14 14 15 15 12
24 27 24 27 31 56 60 55 50 44 41 43 37 54 48 44 52 48 56 62 76 69 68 69 66 56 45 42 43 44 43 37 35 29 26 27 27 30 23 24 20 17 17 14 12 13 11
19 22 26 27 39 60 57 51 44 44 42 42 45 51 51 46 39 48 59 62 76 67 69 69 60 52 47 45 44 44 41 34 33 35 34 30 32 27 27 22 20 13 14 12 12 9 10
16 20 22 30 54 54 46 42 39 40 40 39 40 57 45 53 33 40 58 73 80 69 63 57 54 51 46 43 44 42 41 36 30 27 31 35 32 28 24 22 18 10 12 11 10 10 9
20 25 31 46 48 40 39 36 37 39 37 35 46 46 53 41 43 41 62 77 79 73 62 61 55 52 46 42 42 26 27 33 29 38 39 37 32 26 24 17 10 9 8 8 9 9 9
Wind_Direction
266 264 262 258 256 256 259 260 257 253 250 251 246 248 248 248 250 245 235 238 232 229 236 234 233 227 222 220 211 212 214 210 199 197 201 206 212 212 222 242 251 250 254 244 262 265 282
264 263 263 262 260 258 254 255 257 254 251 248 248 245 246 246 246 246 230 229 237 228 227 228 229 226 222 215 207 207 207 206 201 204 207 220 237 249 264 269 274 274 284 252 249 285 274
267 264 262 261 260 259 257 253 251 253 251 249 248 245 246 244 243 244 233 232 238 228 225 227 225 225 220 213 208 207 209 210 211 213 217 224 238 260 265 272 273 285 289 277 275 286 302
267 266 266 265 262 260 257 257 252 248 251 248 246 246 243 243 242 240 237 231 233 232 231 230 230 223 220 217 211 210 213 216 219 220 223 231 240 254 275 275 278 280 287 291 289 297 307
265 266 266 265 264 262 259 256 256 253 248 249 246 243 244 242 241 238 238 234 231 228 230 223 235 227 218 219 220 219 216 218 221 226 230 241 247 257 273 288 275 280 307 310 280 291 293
265 264 264 264 264 264 262 259 255 253 252 247 248 242 240 242 239 239 237 237 233 230 230 225 234 228 222 221 220 223 225 224 225 228 235 246 255 264 276 287 278 2 321 314 254 273 275
265 264 263 262 261 261 262 262 260 257 251 249 245 246 239 238 239 238 237 234 234 232 228 225 226 225 223 224 221 224 226 229 233 233 240 248 257 272 278 282 251 195 219 225 255 267 281
264 263 263 263 262 260 260 259 259 257 255 251 246 242 242 237 235 237 237 235 234 234 229 225 227 224 232 228 224 226 229 232 236 240 246 252 253 263 274 277 259 241 238 238 256 267 280
266 265 265 265 264 263 262 260 257 255 252 250 248 243 240 237 234 234 236 235 232 233 230 227 226 225 232 230 227 226 229 233 237 240 247 253 262 274 269 272 261 253 248 247 250 268 284
266 265 265 265 265 265 264 263 259 255 252 248 245 242 240 239 234 233 233 233 232 230 231 223 222 223 225 232 229 232 232 237 239 242 252 257 256 260 264 262 255 254 262 256 235 270 294
268 267 266 266 265 265 264 262 260 257 252 248 246 241 237 236 235 235 231 231 231 229 232 226 219 224 223 231 225 231 228 231 239 247 245 255 260 260 253 251 251 248 230 232 255 261 282
269 269 268 267 266 265 264 262 260 258 256 252 249 245 238 232 237 234 230 227 230 231 228 225 222 221 224 226 226 228 232 231 236 239 241 247 256 248 244 241 239 234 248 256 270 286 274
272 271 270 269 268 267 266 265 264 262 260 258 255 249 245 239 234 232 229 228 228 227 222 222 227 219 226 225 228 234 234 237 242 252 245 243 243 242 232 234 232 229 237 263 280 261 255
274 273 272 270 269 268 267 266 265 264 261 258 255 252 247 245 236 229 227 226 225 221 224 223 230 225 224 227 228 232 239 237 232 242 235 243 245 244 238 237 238 239 245 242 242 252 318
275 273 271 268 266 264 262 260 259 257 256 254 252 250 248 243 239 230 225 224 219 220 221 222 229 226 223 226 226 231 236 236 233 237 230 231 242 243 241 247 240 242 240 231 253 283 285
272 269 266 264 260 257 255 253 250 248 245 245 243 241 240 237 235 231 224 218 216 213 221 221 226 229 223 225 227 226 230 232 232 230 226 215 236 210 243 244 221 193 267 213 250 253 236
270 267 265 262 258 253 246 242 238 235 235 236 234 234 229 228 226 225 221 215 213 213 198 202 221 227 223 224 228 230 231 228 228 224 218 203 193 209 240 243 213 213 209 221 227 263 288
266 262 255 251 247 244 239 232 225 225 228 228 226 226 221 218 217 218 214 209 209 207 209 208 212 215 219 222 227 225 218 222 226 217 213 202 198 194 225 242 207 216 245 225 222 255 245
272 274 267 246 245 244 236 223 215 215 220 221 222 218 211 213 215 207 204 201 197 203 206 205 211 216 213 212 220 217 212 220 218 213 203 186 212 187 208 228 204 191 212 233 238 230 254
272 270 272 247 244 241 229 214 206 207 203 210 216 213 204 211 212 205 200 195 189 204 208 207 204 210 214 211 210 206 212 207 214 208 201 197 208 192 215 246 228 212 188 223 228 249 248
264 264 263 242 235 229 221 201 197 200 199 208 210 205 202 206 201 200 200 188 184 198 205 206 203 203 204 209 212 211 215 202 205 203 207 211 213 194 178 224 245 217 209 226 218 234 237
249 249 248 235 226 220 210 189 189 188 194 211 208 200 203 196 189 194 200 186 184 195 200 203 202 204 204 201 208 214 211 209 206 205 204 205 200 177 199 192 204 209 212 213 222 240 264
244 231 228 225 222 213 201 184 178 179 192 209 203 197 200 175 186 197 196 182 183 193 197 196 195 201 201 208 201 188 213 197 205 208 209 205 201 199 199 177 193 207 213 226 242 256 271
231 213 215 217 216 206 190 178 178 180 195 204 201 197 196 188 175 193 189 186 185 188 191 198 196 196 200 198 197 193 198 190 196 198 205 209 202 198 200 198 208 218 223 239 251 255 270
215 207 213 212 211 199 184 175 180 182 195 200 201 197 169 177 174 188 183 188 185 183 185 190 195 195 194 193 190 194 196 193 194 200 203 200 195 182 207 204 215 223 238 238 246 255 283
204 204 214 202 199 184 179 177 181 184 195 199 199 198 184 171 182 185 187 187 182 179 188 188 189 189 190 188 186 199 194 193 194 189 194 186 183 206 201 208 215 228 230 239 244 262 278
180 183 182 188 182 176 174 178 180 186 197 198 196 185 180 162 153 188 184 181 177 179 189 190 190 185 187 186 189 201 196 199 200 200 185 178 199 201 204 210 221 217 226 237 248 265 280
168 174 183 174 173 174 171 175 180 190 195 199 190 172 170 185 156 171 187 182 172 179 186 188 186 182 182 185 189 200 199 203 208 202 199 200 194 199 202 207 224 216 233 239 248 265 262
136 143 152 167 168 163 170 174 185 191 195 191 166 169 176 171 170 184 185 176 177 178 176 180 177 176 180 179 188 193 187 187 199 189 190 199 197 196 201 204 205 212 230 234 251 262 244
Height
5736 5738 5739 5740 5742 5743 5745 5748 5751 5754 5757 5761 5764 5767 5771 5775 5779 5783 5786 5790 5793 5798 5803 5805 5806 5808 5812 5816 5822 5824 5827 5829 5831 5833 5835 5837 5839 5840 5841 5842 5844 5845 5846 5847 5847 5842 5844
5726 5726 5728 5729 5731 5733 5736 5738 5740 5744 5747 5751 5755 5759 5762 5767 5771 5775 5779 5783 5788 5792 5797 5800 5802 5804 5808 5812 5818 5820 5824 5826 5829 5831 5833 5835 5837 5839 5840 5840 5841 5842 5842 5843 5842 5838 5839
5714 5716 5717 5719 5720 5721 5724 5727 5729 5732 5736 5741 5745 5749 5753 5758 5763 5767 5772 5776 5781 5786 5790 5794 5797 5800 5804 5809 5813 5817 5821 5824 5826 5828 5831 5833 5835 5837 5838 5838 5839 5839 5839 5839 5837 5832 5833
5702 5703 5705 5706 5709 5711 5712 5715 5718 5721 5724 5730 5735 5739 5744 5749 5753 5758 5764 5769 5774 5778 5783 5787 5791 5795 5801 5805 5809 5813 5816 5820 5823 5825 5827 5830 5832 5833 5835 5836 5836 5837 5837 5835 5833 5831 5828
5690 5691 5692 5694 5695 5698 5701 5704 5706 5710 5713 5717 5723 5729 5733 5739 5745 5750 5755 5761 5766 5770 5774 5780 5785 5790 5797 5800 5804 5808 5812 5816 5819 5821 5824 5826 5829 5831 5832 5833 5834 5834 5834 5833 5831 5831 5828
5676 5677 5679 5681 5682 5684 5687 5691 5695 5698 5701 5706 5710 5717 5723 5729 5735 5740 5746 5751 5755 5761 5766 5772 5777 5785 5790 5793 5797 5803 5808 5811 5814 5817 5820 5823 5825 5827 5829 5830 5832 5831 5833 5836 5834 5827 5827
5662 5663 5665 5667 5669 5672 5674 5677 5681 5685 5689 5694 5699 5705 5712 5718 5724 5730 5736 5741 5746 5751 5758 5765 5768 5776 5780 5785 5795 5798 5801 5804 5808 5813 5817 5819 5821 5824 5824 5826 5828 5829 5834 5835 5832 5826 5824
5647 5648 5650 5653 5655 5658 5661 5663 5667 5671 5675 5681 5687 5693 5700 5707 5713 5719 5723 5729 5735 5742 5751 5756 5762 5770 5774 5781 5787 5791 5795 5800 5803 5810 5810 5812 5818 5820 5820 5823 5824 5825 5828 5830 5824 5823 5825
5631 5632 5634 5636 5639 5642 5645 5648 5652 5657 5662 5667 5674 5680 5687 5694 5701 5708 5712 5719 5726 5733 5740 5748 5754 5761 5769 5772 5779 5783 5789 5794 5798 5801 5804 5807 5814 5813 5815 5818 5820 5819 5822 5825 5828 5817 5821
5615 5615 5617 5620 5622 5625 5627 5631 5636 5641 5647 5653 5660 5668 5674 5681 5691 5694 5698 5708 5718 5725 5730 5742 5744 5753 5758 5767 5769 5778 5785 5789 5790 5795 5800 5800 5808 5809 5809 5814 5815 5815 5818 5819 5822 5816 5816
5597 5598 5600 5603 5605 5607 5610 5613 5618 5624 5631 5638 5645 5654 5662 5669 5676 5680 5691 5702 5708 5716 5720 5736 5739 5747 5755 5755 5774 5771 5779 5778 5785 5792 5792 5797 5799 5802 5802 5808 5809 5812 5813 5815 5815 5815 5813
5578 5579 5581 5584 5586 5589 5593 5596 5601 5606 5612 5621 5630 5638 5647 5657 5659 5669 5679 5691 5698 5705 5709 5725 5728 5740 5745 5753 5762 5767 5769 5774 5781 5780 5783 5790 5794 5794 5798 5801 5803 5806 5808 5811 5811 5812 5808
5558 5559 5561 5564 5566 5570 5573 5577 5582 5589 5594 5602 5610 5620 5629 5639 5645 5656 5666 5675 5683 5692 5713 5719 5723 5734 5738 5750 5756 5758 5763 5769 5773 5776 5781 5784 5786 5789 5793 5796 5798 5801 5805 5807 5808 5807 5805
5537 5538 5539 5541 5544 5548 5552 5556 5561 5568 5575 5583 5591 5600 5611 5618 5629 5641 5652 5659 5671 5694 5703 5715 5716 5725 5732 5741 5747 5750 5756 5761 5766 5770 5777 5778 5781 5786 5790 5792 5794 5799 5802 5805 5806 5803 5804
5512 5512 5514 5516 5520 5523 5528 5534 5539 5546 5554 5562 5571 5580 5590 5598 5609 5625 5635 5646 5671 5687 5703 5709 5709 5716 5726 5732 5739 5743 5748 5756 5764 5768 5770 5774 5778 5781 5785 5787 5791 5795 5797 5803 5803 5802 5805
5484 5484 5485 5487 5492 5498 5504 5512 5519 5526 5535 5542 5552 5559 5572 5577 5591 5604 5617 5643 5661 5679 5688 5700 5703 5710 5720 5726 5732 5736 5742 5752 5757 5762 5767 5771 5777 5780 5781 5783 5787 5792 5796 5798 5799 5800 5799
5455 5455 5457 5460 5464 5471 5480 5491 5501 5510 5519 5525 5535 5542 5554 5561 5573 5583 5606 5639 5658 5669 5670 5687 5696 5704 5713 5720 5726 5731 5738 5748 5752 5756 5760 5767 5772 5780 5779 5777 5782 5787 5791 5794 5797 5794 5793
5434 5435 5437 5440 5444 5450 5457 5469 5484 5495 5505 5512 5522 5531 5541 5549 5561 5569 5599 5625 5643 5650 5658 5674 5685 5695 5704 5713 5718 5726 5733 5739 5744 5750 5753 5761 5766 5772 5776 5776 5780 5785 5787 5790 5792 5795 5792
5422 5423 5424 5427 5431 5437 5443 5451 5467 5482 5492 5503 5511 5523 5530 5537 5544 5563 5588 5603 5622 5629 5646 5663 5678 5689 5697 5706 5714 5720 5728 5733 5736 5742 5748 5755 5759 5766 5772 5775 5775 5777 5784 5787 5786 5785 5788
5410 5411 5411 5413 5418 5425 5431 5438 5454 5470 5483 5493 5501 5510 5520 5524 5537 5550 5566 5589 5610 5627 5637 5652 5667 5681 5691 5701 5708 5716 5722 5726 5730 5739 5744 5748 5753 5760 5769 5771 5773 5774 5779 5783 5783 5784 5785
5395 5397 5398 5401 5407 5414 5421 5430 5446 5461 5475 5484 5491 5501 5510 5518 5528 5540 5555 5581 5598 5613 5632 5646 5664 5674 5682 5694 5703 5710 5717 5720 5726 5731 5737 5743 5750 5757 5763 5769 5770 5771 5775 5778 5780 5780 5777
5379 5385 5387 5391 5397 5404 5412 5423 5439 5455 5468 5475 5484 5493 5502 5513 5526 5537 5547 5568 5588 5607 5624 5643 5659 5671 5681 5690 5699 5708 5711 5716 5722 5729 5733 5740 5747 5754 5758 5765 5768 5770 5772 5774 5773 5773 5771
5364 5372 5378 5383 5389 5396 5405 5419 5434 5448 5461 5466 5478 5487 5495 5507 5521 5530 5545 5567 5582 5602 5619 5634 5650 5660 5673 5684 5690 5700 5707 5715 5721 5727 5732 5738 5743 5749 5755 5760 5762 5765 5766 5767 5769 5770 5766
5355 5363 5371 5377 5383 5390 5400 5414 5430 5442 5454 5465 5474 5484 5494 5507 5514 5524 5539 5559 5575 5593 5616 5633 5643 5653 5664 5676 5687 5694 5701 5709 5715 5721 5726 5733 5740 5746 5750 5754 5758 5759 5761 5764 5766 5766 5765
5349 5358 5365 5372 5378 5386 5398 5412 5427 5439 5450 5461 5466 5476 5490 5500 5513 5522 5535 5552 5573 5589 5603 5619 5634 5649 5663 5671 5682 5690 5695 5703 5709 5716 5722 5729 5737 5742 5744 5750 5753 5756 5759 5761 5762 5762 5763
5347 5354 5360 5367 5374 5385 5398 5412 5426 5438 5448 5456 5464 5473 5486 5498 5512 5522 5534 5547 5565 5589 5602 5615 5629 5645 5661 5670 5677 5684 5689 5697 5702 5710 5719 5728 5734 5738 5743 5746 5750 5753 5755 5757 5758 5758 5759
5347 5352 5360 5366 5373 5387 5401 5414 5426 5437 5445 5455 5463 5476 5489 5497 5508 5519 5532 5546 5565 5588 5600 5612 5630 5645 5655 5665 5674 5681 5689 5698 5702 5708 5715 5723 5729 5735 5739 5743 5746 5750 5752 5754 5755 5759 5755
5351 5356 5361 5367 5379 5392 5406 5417 5427 5436 5444 5452 5463 5475 5489 5497 5505 5516 5528 5543 5558 5576 5595 5614 5628 5642 5653 5662 5672 5679 5687 5693 5701 5710 5715 5720 5726 5732 5737 5740 5744 5747 5748 5751 5752 5752 5753
5356 5360 5366 5376 5388 5400 5410 5420 5429 5436 5443 5451 5467 5477 5488 5496 5512 5520 5526 5545 5563 5574 5590 5606 5625 5638 5649 5659 5670 5680 5686 5690 5697 5703 5713 5718 5725 5730 5734 5739 5742 5743 5745 5747 5748 5749 5750